Weather in Mirnyy

Russia / Chelyabinsk Oblast     55°15′05″N   61°44′01″E
temp.,
°C
wind,
m/s
gust,
m/s
humid.,
%
clouds,
%
prec.,
mm/h
press.,
hPa
HPBL,
m
15 may, sat
sat1523:00+23wnw33385 0.1 102245
02:00+19nw35494 0.1 102371
05:00+17nw345698 0.3 102349
08:00+22w2342100 0.0 1023233
11:00+27w353085 0.0 10221232
14:00+30w46241 0.0 10212700
17:00+30wnw7822100 0.0 10203164
20:00+25nw473847 0.0 1019111
16 may, sun
sun1623:00+21wnw3545100 0.0 102053
02:00+19w375357 0.0 1021102
05:00+18w33575 0.0 102142
08:00+23w474480 0.0 1021297
11:00+29wnw45305 0.0 10211083
14:00+31wsw56215 0.0 10203327
17:00+32wsw451944 0.0 10193620
20:00+24wnw7144369 0.5 1020381
17 may, mon
mon1723:00+20wsw33456 0.5 101938
02:00+20wnw35466 0.0 102056
05:00+18w33525 0.0 102027
08:00+24wsw35395 0.0 1020238
11:00+29wsw68244 0.0 10193180
14:00+31w582187 0.0 10183533
17:00+28wsw682859 0.0 10171723
20:00+21ssw4855100 0.3 1018153
18 may, tue
tue1823:00+21wsw5125026 0.3 1017214
02:00+19w4754100 0.0 1017110
05:00+18wnw496157 0.1 1017164
08:00+22nw68565 0.0 1016450
11:00+26wnw7103675 0.0 10162094
14:00+27nw7102910 0.0 10152589
17:00+27nnw79258 0.0 10152780
20:00+22nnw51042100 0.0 1015257
19 may, wed
wed1923:00+16ne6116387 0.0 1019468
02:00+15nne610625 0.0 1020721
05:00+10nne6118257 0.0 1023638
08:00+13ne67667 0.0 1025968
11:00+16ne56430 0.0 10251268
14:00+19ne563794 0.0 10251487
17:00+20ne44366 0.0 10251511
20:00+17e225199 0.0 102539